Le nostre stazioni meteo in Italia

Pubblicità
Il mio iltempo24.it
Venezia Lido, Italia (16101): Temperatura & dewpoint: 18.06.2018 22:00:00 - 24.06.2018 22:00:00 (CEST)Venezia Lido, Italia (16101): velocità del vento: 18.06.2018 22:00:00 - 24.06.2018 22:00:00 (CEST)Venezia Lido, Italia (16101): direzione del vento: 18.06.2018 22:00:00 - 24.06.2018 22:00:00 (CEST)Venezia Lido, Italia (16101): reduced air pressure: 18.06.2018 22:00:00 - 24.06.2018 22:00:00 (CEST)Venezia Lido, Italia (16101): precipitazioni: 18.06.2018 22:00:00 - 24.06.2018 22:00:00 (CEST)
Data & Tempo tt [°C] td [°C] ff [km/h] ff [kn] dd ppp [hPa] rr [mm]
24.06.2018 22:00:00 - - - - - - -
24.06.2018 21:00:00 21,4 11,9 8 4 S 1016,4 -
24.06.2018 20:00:00 22,1 12,6 8 4 S 1016,4 0,0
24.06.2018 19:00:00 22,2 12,7 11 6 S 1016,3 -
24.06.2018 18:00:00 22,9 12,2 9 5 S 1016,5 -
24.06.2018 17:00:00 23,2 12,8 11 6 S 1017,0 -
24.06.2018 16:00:00 23,3 12,8 11 6 SSO 1017,4 -
24.06.2018 15:00:00 23,6 12,8 11 6 S 1018,0 -
24.06.2018 14:00:00 23,0 12,6 11 6 S 1018,4 0,0
24.06.2018 13:00:00 22,9 11,3 9 5 S 1018,6 -
24.06.2018 12:00:00 22,7 11,7 9 5 S 1019,1 -
24.06.2018 11:00:00 22,1 8,9 5 3 NNE 1019,2 -
24.06.2018 10:00:00 21,6 8,8 5 3 NE 1019,3 -
24.06.2018 09:00:00 21,3 10,7 5 3 NE 1019,3 -
24.06.2018 08:00:00 19,5 12,5 4 2 ENE 1019,1 0,0
24.06.2018 07:00:00 18,2 12,2 4 2 NE 1019,0 -
24.06.2018 06:00:00 17,8 10,6 4 2 NNE 1018,8 -
24.06.2018 05:00:00 18,1 12,1 4 2 N 1018,7 -
24.06.2018 04:00:00 18,4 11,2 5 3 OSO 1018,9 -
24.06.2018 03:00:00 18,5 10,0 5 3 OSO 1019,1 -
24.06.2018 02:00:00 18,5 9,8 5 3 OSO 1019,4 0,0
24.06.2018 01:00:00 19,0 9,7 5 3 OSO 1019,6 -
24.06.2018 00:00:00 18,9 9,9 5 3 OSO 1019,3 -
23.06.2018 23:00:00 18,6 9,9 4 2 OSO 1019,3 -
23.06.2018 22:00:00 20,1 9,3 5 3 OSO 1018,9 -
23.06.2018 21:00:00 20,7 9,5 5 3 SO 1018,5 -
23.06.2018 20:00:00 21,0 7,9 8 4 SSO 1018,4 0,0
23.06.2018 19:00:00 21,4 6,8 9 5 S 1018,4 -
23.06.2018 18:00:00 21,5 6,5 11 6 S 1018,8 -
23.06.2018 17:00:00 21,7 5,5 11 6 S 1019,3 -
23.06.2018 16:00:00 21,8 4,8 13 7 S 1019,7 -
23.06.2018 15:00:00 21,9 4,4 11 6 S 1020,2 -
23.06.2018 14:00:00 21,7 4,7 11 6 S 1020,8 0,0
23.06.2018 13:00:00 21,5 6,1 11 6 SSE 1021,2 -
23.06.2018 12:00:00 21,4 4,8 13 7 SE 1021,4 -
23.06.2018 11:00:00 20,5 10,8 15 8 ESE 1021,6 -
23.06.2018 10:00:00 20,4 11,5 15 8 ESE 1021,6 -
23.06.2018 09:00:00 18,9 12,1 15 8 E 1021,6 -
23.06.2018 08:00:00 17,7 11,4 16 9 E 1021,3 0,0
23.06.2018 07:00:00 16,0 12,1 9 5 ENE 1021,1 -
23.06.2018 06:00:00 14,8 11,2 11 6 ENE 1020,8 -
23.06.2018 05:00:00 15,2 11,9 9 5 ENE 1020,4 -
23.06.2018 04:00:00 15,7 11,2 15 8 E 1020,2 -
23.06.2018 03:00:00 16,5 12,2 15 8 ENE 1020,2 -
23.06.2018 02:00:00 16,5 11,8 22 12 E 1019,8 0,0
23.06.2018 01:00:00 16,7 11,4 18 10 E 1019,7 -
23.06.2018 00:00:00 17,4 11,2 24 13 E 1019,3 -
22.06.2018 23:00:00 18,1 12,9 18 10 E 1018,7 -
22.06.2018 22:00:00 19,0 12,0 24 13 E 1018,2 -
22.06.2018 21:00:00 19,7 12,8 16 9 E 1017,3 -
22.06.2018 20:00:00 20,9 13,5 15 8 ESE 1016,4 -
22.06.2018 19:00:00 20,9 13,7 9 5 SE 1015,8 -
22.06.2018 18:00:00 21,7 14,5 13 7 ESE 1015,6 -
22.06.2018 17:00:00 22,2 15,2 18 10 ESE 1015,2 -
22.06.2018 16:00:00 22,0 13,8 28 15 ESE 1015,0 -
22.06.2018 15:00:00 21,5 15,3 29 16 ESE 1015,0 -
22.06.2018 14:00:00 21,1 15,1 35 19 ESE 1014,9 -
22.06.2018 13:00:00 20,9 16,4 35 19 ESE 1014,6 -
22.06.2018 12:00:00 19,4 16,6 35 19 ESE 1014,3 -
22.06.2018 11:00:00 19,6 18,0 15 8 E 1013,6 -
22.06.2018 10:00:00 19,1 17,5 16 9 E 1012,8 -
22.06.2018 09:00:00 19,2 17,6 18 10 E 1013,1 -
22.06.2018 08:00:00 19,8 18,1 11 6 ENE 1012,6 -
22.06.2018 07:00:00 20,3 18,5 16 9 E 1011,0 -
22.06.2018 06:00:00 20,3 18,5 13 7 ENE 1010,8 -
22.06.2018 05:00:00 20,5 18,7 21 11 E 1010,4 -
22.06.2018 04:00:00 18,7 17,0 31 17 E 1009,9 -
22.06.2018 03:00:00 22,6 20,8 2 1 ESE 1010,3 -
22.06.2018 02:00:00 23,2 20,3 4 2 N 1010,7 -
22.06.2018 01:00:00 26,0 23,2 11 6 OSO 1011,2 -
22.06.2018 00:00:00 26,0 22,6 13 7 SSO 1011,7 -
21.06.2018 23:00:00 26,1 22,5 15 8 SO 1012,1 -
21.06.2018 22:00:00 26,2 21,6 18 10 SO 1012,1 -
21.06.2018 21:00:00 26,4 22,2 11 6 SSO 1011,8 -
21.06.2018 20:00:00 26,6 21,7 11 6 SSO 1011,1 0,0
21.06.2018 19:00:00 27,0 21,7 13 7 SSO 1011,9 -
21.06.2018 18:00:00 28,3 20,3 15 8 SSO 1012,1 -
21.06.2018 17:00:00 28,5 20,5 15 8 SSO 1012,6 -
21.06.2018 16:00:00 29,0 20,1 15 8 SSO 1013,3 -
21.06.2018 15:00:00 28,7 21,9 15 8 S 1014,2 -
21.06.2018 14:00:00 28,8 19,7 15 8 SSO 1014,8 0,0
21.06.2018 13:00:00 28,2 21,2 13 7 S 1015,3 -
21.06.2018 12:00:00 28,8 18,8 11 6 SSO 1015,8 -
21.06.2018 11:00:00 28,6 18,3 5 3 ONO 1016,0 -
21.06.2018 10:00:00 27,3 18,3 5 3 O 1016,3 -
21.06.2018 09:00:00 25,7 19,3 5 3 N 1016,4 -
21.06.2018 08:00:00 24,7 19,0 4 2 N 1016,4 0,0
21.06.2018 07:00:00 23,6 18,0 4 2 NO 1016,6 -
21.06.2018 06:00:00 23,2 17,8 5 3 ONO 1016,6 -
21.06.2018 05:00:00 23,9 18,3 8 4 O 1016,7 -
21.06.2018 04:00:00 24,1 17,8 5 3 O 1017,1 -
21.06.2018 03:00:00 24,6 17,0 5 3 O 1017,5 -
21.06.2018 02:00:00 25,5 19,8 5 3 ONO 1017,6 0,0
21.06.2018 01:00:00 25,6 19,7 5 3 O 1018,0 -
21.06.2018 00:00:00 25,9 20,4 8 4 O 1018,6 -
20.06.2018 23:00:00 24,2 18,1 4 2 OSO 1018,8 -
20.06.2018 22:00:00 24,5 17,9 4 2 SO 1018,6 -
20.06.2018 21:00:00 26,4 18,5 5 3 OSO 1018,0 -
20.06.2018 20:00:00 28,5 15,7 4 2 OSO 1017,8 0,0
20.06.2018 19:00:00 28,6 16,1 8 4 SO 1018,0 -
20.06.2018 18:00:00 29,3 10,9 9 5 SO 1018,4 -
20.06.2018 17:00:00 28,8 14,2 11 6 SSO 1018,9 -
20.06.2018 16:00:00 29,1 15,2 11 6 SSO 1019,4 -
20.06.2018 15:00:00 28,2 16,1 11 6 S 1019,9 -
20.06.2018 14:00:00 28,4 16,6 13 7 SSE 1020,4 0,0
20.06.2018 13:00:00 28,5 16,0 15 8 SE 1020,9 -
20.06.2018 12:00:00 28,9 12,8 21 11 ESE 1021,1 -
20.06.2018 11:00:00 - - - - - - -
20.06.2018 10:00:00 27,9 15,5 21 11 E 1021,1 -
20.06.2018 09:00:00 25,5 16,6 15 8 E 1021,1 -
20.06.2018 08:00:00 24,9 17,0 16 9 E 1021,0 0,0
20.06.2018 07:00:00 23,9 17,1 15 8 E 1020,6 -
20.06.2018 06:00:00 22,9 17,1 13 7 E 1020,4 -
20.06.2018 05:00:00 23,0 16,9 11 6 E 1020,2 -
20.06.2018 04:00:00 24,3 18,2 15 8 E 1020,0 -
20.06.2018 03:00:00 22,2 17,3 5 3 E 1020,2 -
20.06.2018 02:00:00 23,0 18,5 4 2 ESE 1020,4 0,0
20.06.2018 01:00:00 22,7 17,8 2 1 SE 1020,3 -
20.06.2018 00:00:00 22,1 15,1 2 1 SE 1020,0 -
19.06.2018 23:00:00 22,6 14,4 2 1 O 1019,7 -
19.06.2018 22:00:00 23,7 13,8 0 0 N 1019,1 -
19.06.2018 21:00:00 26,5 12,5 0 0 N 1018,4 -
19.06.2018 20:00:00 30,3 11,3 2 1 NNO 1018,1 0,0
19.06.2018 19:00:00 29,5 13,2 5 3 O 1018,1 -
19.06.2018 18:00:00 29,8 10,9 5 3 OSO 1018,4 -
19.06.2018 17:00:00 29,2 9,4 9 5 SSO 1018,9 -
19.06.2018 16:00:00 28,8 12,7 11 6 SSO 1019,5 -
19.06.2018 15:00:00 28,6 12,5 11 6 SSO 1019,7 -
19.06.2018 14:00:00 27,8 11,4 9 5 S 1020,1 0,0
19.06.2018 13:00:00 27,7 10,0 8 4 S 1020,2 -
19.06.2018 12:00:00 27,6 12,4 9 5 SSE 1020,4 -
19.06.2018 11:00:00 27,6 14,5 5 3 ESE 1020,6 -
19.06.2018 10:00:00 26,3 16,5 8 4 ENE 1020,6 -
19.06.2018 09:00:00 23,9 16,6 5 3 ENE 1020,4 -
19.06.2018 08:00:00 24,3 17,9 11 6 E 1019,8 0,0
19.06.2018 07:00:00 23,3 19,2 5 3 E 1019,4 -
19.06.2018 06:00:00 21,4 17,5 5 3 ENE 1019,2 -
19.06.2018 05:00:00 21,6 17,1 5 3 E 1018,7 -
19.06.2018 04:00:00 22,3 17,4 5 3 ENE 1018,6 -
19.06.2018 03:00:00 22,9 17,3 5 3 NE 1018,6 -
19.06.2018 02:00:00 23,5 17,9 5 3 ENE 1018,4 0,0
19.06.2018 01:00:00 24,4 20,0 2 1 SE 1018,3 -
19.06.2018 00:00:00 24,6 20,0 5 3 SE 1018,2 -
18.06.2018 23:00:00 23,5 19,4 9 5 ESE 1017,8 -
18.06.2018 22:00:00 24,9 16,0 15 8 E 1017,3 -

tt = Temperatura
td = dewpoint
ff = velocità del vento
dd = direzione del vento
ppp = reduced air pressure
rr = precipitazioni

Stazioni seguenti

WeatherPro
AMSI
MeteoEarth